Regional Weather Roundup
Issued by NWS Charleston, WV

Home | Current Version | Previous Version | Graphics & Text | Print | Product List | Glossary On
Versions: 1 2 3 4 5 6 7 8 9 10 11 12 13 14 15 16 17 18 19 20 21 22 23 24 25 26 27 28
000
ASUS41 KRLX 242210
RWRRLX
West Virginia Regional Weather Roundup
National Weather Service Charleston WV
600 PM EDT FRI OCT 24 2014

Note: "fair" indicates few or no clouds below 12,000 feet with no
significant weather and/or obstructions to visibility.

WVZ003-242300-
Northern Panhandle of West Virginia

CITY           SKY/WX    TMP DP  RH WIND       PRES   REMARKS
WHEELING       CLEAR     59  38  45 W6        30.00F
$$

WVZ009-242300-
Northwest West Virginia

CITY           SKY/WX    TMP DP  RH WIND       PRES   REMARKS
PARKERSBURG    CLEAR     61  40  45 SW3       30.05F
$$

WVZ006-242300-
Western West Virginia

CITY           SKY/WX    TMP DP  RH WIND       PRES   REMARKS
HUNTINGTON     CLEAR     63  42  46 CALM      30.04R
$$

WVZ015-242300-
West Central West Virginia

CITY           SKY/WX    TMP DP  RH WIND       PRES   REMARKS
CHARLESTON     PTCLDY    61  40  45 W3        30.03F
$$

WVZ022-031-242300-
North Central West Virginia

CITY           SKY/WX    TMP DP  RH WIND       PRES   REMARKS
CLARKSBURG     CLEAR     58  40  51 W6        30.02F
MORGANTOWN     CLEAR     62  33  33 NW3       30.02S
$$

WVZ025-035-042-045-242300-
Southern West Virginia

CITY           SKY/WX    TMP DP  RH WIND       PRES   REMARKS
BECKLEY        CLEAR     56  35  45 NW7       30.05S
LOGAN            N/A     59  41  51 CALM      30.05S
BLUEFIELD      CLEAR     57  36  45 W7        30.05S
LEWISBURG      MOCLDY    60  34  37 W8        30.03R
$$

WVZ047-242300-
Northern Mountains of West Virginia

CITY           SKY/WX    TMP DP  RH WIND       PRES   REMARKS
ELKINS         CLEAR     55  38  52 NW5       30.04S
$$

WVZ052-242300-
Eastern Panhandle of West Virginia

CITY           SKY/WX    TMP DP  RH WIND       PRES   REMARKS
MARTINSBURG    CLOUDY    62  30  29 W8        29.95R
PETERSBURG     CLEAR     61  31  32 NW9       29.99R
$$



USA.gov is the U.S. government's official web portal to all federal, state and local government web resources and services.